SCP
0 0 0 0 0 0 0 0 0 0 0 0 0 0 0 0 0 0 0 0 0 0 0 0 0 0 0 0 0 0 0 0 0 0 0 0 0 0 0 0 0 0 0
0 0 0 0 0 0 0 0 0 0 0 0 0 0 0 0 0 0 0 0 0 0 0 0 0 0 0 0 0 0 0 0 0 0 0 0 0 0 0 0 0 0 0
0 0 0 0 0 0 0 0 0 0 0 0 0 0 0 0 0 0 0 0 0 0 0 0 0 0 0 0 0 0 0 0 0 0 0 0 0 0 0 0 0 0 0
0 0 0 0 0 0 0 0 0 0 0 0 0 0 0 0 0 0 0 0 0 0 0 0 0 0 0 0 0 0 0 0 0 0 0 0 0 0 0 0 0 0 0
0 0 0 0 0 0 0 0 0 0 0 0 0 0 0 0 0 0 0 0 0 0 0 0 0 0 0 0 0 0 0 0 0 0 0 0 0 0 0 0 0 0 0
0 0 0 0 0 0 0 0 0 0 0 0 0 0 0 0 0 0 0 0 0 0 0 0 0 0 0 0 0 0 0 0 0 0 0 0 0 0 0 0 0 0 0
0 0 0 0 0 0 0 0 0 0 0 0 0 0 0 0 0 0 0 0 0 0 0 0 0 0 0 0 0 0 0 0 0 0 0 0 0 0 0 0 0 0 0
0 0 0 0 0 0 0 0 0 0 0 0 0 0 0 0 0 0 0 0 0 0 0 0 0 0 0 0 0 0 0 0 0 0 0 0 0 0 0 0 0 0 0
0 0 0 0 0 0 0 0 0 0 0 0 0 0 0 0 0 0 0 0 0 0 0 0 0 0 0 0 0 0 0 0 0 0 0 0 0 0 0 0 0 0 0
0 0 0 0 0 0 0 0 0 0 0 0 0 0 0 0 0 0 0 0 0 0 0 0 0 0 0 0 0 0 0 0 0 0 0 0 0 0 0 0 0 0 0
0 0 0 0 0 0 0 0 0 0 0 0 0 0 0 0 0 0 0 0 0 0 0 0 0 0 0 0 0 0 0 0 0 0 0 0 0 0 0 0 0 0 0
0 0 0 0 0 0 0 0 0 0 0 0 0 0 0 0 0 0 0 0 0 0 0 0 0 0 0 0 0 0 0 0 0 0 0 0 0 0 0 0 0 0 0
0 0 0 0 0 0 0 0 0 0 0 0 0 0 0 0 0 0 0 0 0 0 0 0 0 0 0 0 0 0 0 0 0 0 0 0 0 0 0 0 0 0 0
0 0 0 0 0 0 0 0 0 0 0 0 0 0 0 0 0 0 0 0 0 0 0 0 0 0 0 0 0 0 0 0 0 0 0 0 0 0 0 0 0 0 0
0 0 0 0 0 0 0 0 0 0 0 0 0 0 0 0 0 0 0 0 0 0 0 0 0 0 0 0 0 0 0 0 0 0 0 0 0 0 0 0 0 0 0
0 0 0 0 0 0 0 0 0 0 0 0 0 0 0 0 0 0 0 0 0 0 0 0 0 0 0 0 0 0 0 0 0 0 0 0 0 0 0 0 0 0 0
0 0 0 0 0 0 0 0 0 0 0 0 0 0 0 0 0 0 0 0 0 0 0 0 0 0 0 0 0 0 0 0 0 0 0 0 0 0 0 0 0 0 0
0 0 0 0 0 0 0 0 0 0 0 0 0 0 0 0 0 0 0 0 0 0 0 0 0 0 0 0 0 0 0 0 0 0 0 0 0 0 0 0 0 0 0
0 0 0 0 0 0 0 0 0 0 0 0 0 0 0 0 0 0 0 0 0 0 0 0 0 0 0 0 0 0 0 0 0 0 0 0 0 0 0 0 0 0 0
0 0 0 0 0 0 0 0 0 0 0 0 0 0 0 0 0 0 0 0 0 0 0 0 0 0 0 0 0 0 0 0 0 0 0 0 0 0 0 0 0 0 0
0 0 0 0 0 0 0 0 0 0 0 0 0 0 0 0 0 0 0 0 0 0 0 0 0 0 0 0 0 0 0 0 0 0 0 0 0 0 0 0 0 0 0
0 0 0 0 0 0 0 0 0 0 0 0 0 0 0 0 0 0 0 0 0 0 0 0 0 0 0 0 0 0 0 0 0 0 0 0 0 0 0 0 0 0 0
0 0 0 0 0 0 0 0 0 0 0 0 0 0 0 0 0 0 0 0 0 0 0 0 0 0 0 0 0 0 0 0 0 0 0 0 0 0 0 0 0 0 0
0 0 0 0 0 0 0 0 0 0 0 0 0 0 0 0 0 0 0 0 0 0 0 0 0 0 0 0 0 0 0 0 0 0 0 0 0 0 0 0 0 0 0
0 0 0 0 0 0 0 0 0 0 0 0 0 0 0 0 0 0 0 0 0 0 0 0 0 0 0 0 0 0 0 0 0 0 0 0 0 0 0 0 0 0 0
0 0 0 0 0 0 0 0 0 0 0 0 0 0 0 0 0 0 0 0 0 0 0 0 0 0 0 0 0 0 0 0 0 0 0 0 0 0 0 0 0 0 0
Wind_Speed
1 1 1 1 1 1 1 2 2 2 2 3 3 3 3 3 3 4 4 4 5 5 5 6 6 5 4 4 4 4 4 5 7 5 3 3 4 4 3 4 5 5 5
2 1 1 1 1 1 1 1 1 1 1 2 2 3 3 3 3 4 4 4 5 5 5 6 6 5 6 5 4 5 5 5 6 7 4 3 4 4 4 5 4 4 5
2 1 1 1 1 1 2 1 1 1 1 1 2 2 3 3 3 3 4 4 4 5 5 5 6 6 6 5 5 5 5 4 5 5 5 3 3 3 4 4 5 5 5
2 2 2 2 2 2 2 1 1 1 1 1 1 2 2 2 2 2 3 3 4 4 4 4 5 5 6 6 5 6 5 5 5 5 5 4 3 3 3 4 4 4 4
2 2 2 2 2 2 1 1 1 1 1 1 1 1 1 2 2 2 3 3 3 3 3 4 4 4 5 5 4 5 5 5 5 5 5 4 4 3 4 3 5 5 5
1 2 2 3 2 2 2 1 1 1 1 1 1 1 1 1 1 2 3 3 3 3 3 3 4 4 5 6 6 6 6 6 6 6 6 6 6 5 4 4 4 4 5
1 2 2 2 2 2 2 1 1 1 1 1 1 1 2 2 2 2 3 3 3 3 4 3 3 3 4 5 5 7 7 7 8 7 8 8 7 6 5 6 5 6 6
1 2 2 2 2 2 2 2 2 2 1 1 2 2 2 3 3 3 3 3 3 4 4 4 4 4 4 4 4 5 5 6 6 6 7 7 6 5 5 6 6 6 5
2 2 3 3 2 2 2 2 2 2 2 2 2 2 3 3 3 4 3 3 3 4 4 4 4 5 5 5 5 5 6 5 6 7 7 7 7 6 4 3 3 4 5
3 3 3 3 2 2 3 3 2 2 2 2 2 2 3 3 4 4 4 3 3 3 3 3 4 6 6 6 6 5 6 6 4 5 6 7 6 5 5 4 4 4 4
4 3 3 3 3 3 3 2 2 2 2 2 2 2 3 3 4 5 5 3 3 4 4 3 3 6 7 7 7 5 7 5 4 4 4 4 3 3 3 4 4 4 5
3 3 3 3 3 2 2 2 2 2 2 2 2 3 2 3 3 4 5 5 5 4 4 4 4 5 7 7 6 7 7 5 3 3 3 4 4 4 3 3 4 4 5
3 3 3 3 3 3 2 2 2 2 2 2 2 3 3 2 3 5 5 6 6 5 4 6 6 7 7 6 7 7 5 3 3 4 4 4 4 3 3 3 3 3 4
2 3 3 3 3 3 2 2 2 2 2 3 3 3 3 3 3 3 3 4 5 5 5 4 6 6 6 5 4 4 4 3 4 4 4 4 3 3 3 3 3 3 4
2 2 3 2 3 3 2 2 3 3 3 4 4 4 4 4 5 7 5 4 4 4 4 3 3 3 3 3 3 3 3 3 4 4 4 4 3 3 3 3 3 3 4
2 2 2 2 2 3 3 3 4 5 7 8 8 7 6 7 9 9 9 9 8 6 4 3 4 4 4 4 4 4 4 4 4 4 4 4 4 4 4 3 3 4 4
3 3 2 3 3 3 3 3 4 4 5 7 8 9 9 10 10 10 9 9 8 6 4 4 4 5 5 4 4 5 5 4 4 4 4 4 4 4 4 4 4 4 4
3 3 3 3 3 3 3 4 4 4 5 4 5 8 9 10 10 10 9 7 5 4 4 5 5 5 5 5 5 5 5 4 4 5 5 4 4 4 4 5 4 5 5
3 2 2 3 3 3 4 4 4 4 5 5 5 5 7 9 9 8 6 4 4 4 4 5 5 5 5 5 5 5 5 5 5 5 5 5 5 5 5 5 5 5 5
3 3 3 3 3 3 3 3 4 4 4 5 5 5 5 5 4 4 4 4 4 5 5 5 5 5 5 5 5 5 5 5 5 5 5 5 5 5 6 6 5 5 5
3 3 3 3 3 3 3 4 4 4 5 5 5 6 9 6 6 6 5 5 5 5 5 5 5 5 5 5 5 5 6 6 5 5 5 5 5 5 5 5 5 5 5
3 3 3 3 3 4 4 4 4 5 5 6 6 6 8 5 5 5 5 5 5 5 5 5 5 5 5 5 5 6 6 6 6 5 5 5 5 5 5 5 5 5 5
3 3 4 4 4 4 4 4 4 5 5 6 6 5 5 5 5 6 6 6 6 5 5 5 6 6 5 5 5 6 6 6 6 5 6 5 5 5 5 5 6 6 6
3 4 4 4 4 4 4 5 5 5 5 6 6 6 6 6 6 7 6 6 6 6 5 5 6 8 9 7 6 6 6 6 6 6 8 7 6 5 5 5 5 6 5
4 4 4 4 4 5 5 5 5 5 5 6 6 6 6 6 6 7 6 6 7 7 8 7 6 7 9 10 9 8 8 10 9 7 6 6 7 6 6 6 5 5 5
4 4 5 4 5 5 5 5 6 6 6 6 6 6 6 6 7 7 6 6 6 7 7 7 8 9 10 9 10 10 10 11 10 9 7 6 7 6 6 5 6 6 5
Wind_Direction
335 310 279 261 253 240 237 246 245 235 214 200 194 198 200 203 205 207 213 213 214 218 219 218 222 221 222 221 223 230 236 240 251 261 257 263 263 274 283 281 280 275 273
339 327 294 276 258 240 244 252 256 243 230 218 203 201 206 207 208 210 216 218 218 220 220 220 223 220 223 224 222 228 234 236 244 258 260 260 267 278 282 282 284 283 280
346 337 324 305 285 272 269 267 260 248 239 224 213 213 218 219 221 222 221 219 221 224 223 223 227 222 225 225 225 230 235 238 241 252 261 264 271 280 283 281 282 280 281
355 345 329 313 297 290 290 277 258 247 236 229 226 230 235 232 237 234 228 224 225 229 231 229 229 226 230 231 230 233 234 237 240 248 255 263 267 278 275 280 284 279 279
357 352 333 322 317 316 315 300 280 263 256 244 240 242 251 243 244 235 230 227 228 233 235 237 239 239 241 238 237 236 232 236 238 243 251 257 256 263 263 272 276 284 278
340 335 340 344 342 333 320 320 317 297 285 284 264 249 254 269 276 246 240 235 231 230 235 242 246 242 245 244 245 244 239 236 239 242 248 251 256 256 262 263 272 284 279
311 330 343 338 335 333 326 316 305 291 284 274 280 272 266 279 284 265 248 243 240 239 238 240 243 251 241 242 245 247 247 250 247 248 252 254 261 256 257 261 260 267 272
319 326 331 327 324 327 324 317 305 295 278 268 274 276 279 291 289 275 261 248 252 251 248 244 246 254 252 246 241 243 248 251 252 252 259 266 274 273 257 262 267 275 281
319 315 316 314 315 318 313 309 310 300 289 285 287 278 278 289 292 283 271 259 257 259 258 254 255 261 266 250 243 250 257 262 261 259 268 278 282 278 267 262 262 265 275
308 305 304 301 298 298 298 302 304 293 291 299 294 285 285 290 298 290 274 264 265 266 263 259 259 264 268 250 246 250 257 265 271 272 270 276 276 271 254 244 244 254 272
311 309 306 300 293 289 293 302 303 303 303 303 296 293 292 293 293 290 280 270 269 273 270 268 268 267 264 258 254 255 265 274 267 264 267 270 271 265 256 256 257 253 256
318 317 313 308 303 301 298 305 311 304 295 297 299 302 298 293 294 294 285 276 280 271 273 275 276 271 265 266 262 269 273 271 265 262 262 262 262 261 263 263 266 268 273
325 321 321 320 315 315 302 299 301 293 284 291 295 298 302 302 299 300 293 286 283 276 276 279 280 278 274 269 271 274 271 260 256 256 258 261 262 265 267 266 270 270 274
320 320 323 320 319 320 308 297 286 280 279 282 286 288 296 298 299 303 294 289 280 275 279 280 278 279 274 276 277 266 257 253 251 254 262 270 272 259 253 255 263 268 271
318 318 320 317 315 306 298 287 284 278 275 280 283 284 287 289 294 296 293 291 288 281 280 276 274 275 270 268 267 263 255 248 247 254 260 265 265 261 257 256 256 260 262
309 315 310 307 306 304 302 300 287 288 292 287 284 283 283 285 296 292 290 292 292 286 274 265 267 268 268 269 268 266 258 254 253 253 255 256 259 257 260 254 252 252 258
297 297 295 297 300 301 302 302 305 306 294 292 293 293 289 294 296 294 292 290 289 281 265 260 260 263 264 265 265 262 261 260 257 250 249 251 253 255 255 254 251 253 257
290 288 288 288 290 289 288 290 292 298 303 299 299 299 301 301 300 297 294 292 282 269 260 261 262 263 264 262 260 259 260 259 251 249 249 248 248 250 252 252 252 255 260
285 284 286 284 281 280 282 283 284 287 289 296 303 304 308 306 302 299 296 277 267 265 261 262 263 263 263 264 264 261 259 257 254 251 250 248 246 246 250 251 253 253 253
277 284 288 285 282 281 281 281 284 286 288 290 293 303 313 308 301 299 288 273 267 266 265 262 262 262 261 260 260 260 260 258 254 249 250 249 247 245 247 248 246 246 246
279 282 284 283 279 278 278 278 281 282 283 285 286 291 300 296 291 290 285 275 269 268 268 265 262 260 257 256 255 252 251 254 254 254 252 248 246 245 246 246 245 243 246
273 275 273 273 276 276 277 276 276 277 280 283 288 295 299 293 286 285 285 282 279 276 274 271 268 263 257 251 249 250 250 251 251 249 252 252 247 242 240 240 241 241 240
267 270 272 271 272 275 274 272 272 274 278 281 286 288 288 282 281 280 282 286 284 279 275 272 271 269 264 257 253 250 252 253 251 248 248 248 246 243 238 236 234 236 237
263 265 268 271 271 270 271 273 272 273 276 279 281 280 281 281 281 282 283 283 285 285 283 276 272 274 274 268 261 256 254 255 253 246 242 242 242 240 236 235 234 233 235
260 262 263 264 266 268 270 271 272 272 273 274 275 276 278 279 281 283 285 285 285 281 281 281 277 276 275 271 268 264 261 260 256 248 240 237 236 234 232 233 231 230 229
261 260 260 260 260 262 264 267 270 272 272 274 274 275 276 277 279 281 283 283 285 285 285 281 279 281 281 277 274 272 267 260 252 244 234 230 226 225 222 225 226 226 226